Погода в Аяне

Погода в Аяне : погода сейчас, прогноз погоды и архив. Всё, что Вы хотите узнать о погоде в Аяне!

Хотите узнать прогноз погоды в Аяне? Тогда Вам сюда: Погода в Аяне

Поиск расширенной информации на нашем сайте:

Другие новости

Новости СМИ2

Главная страница сайта

Новости сайта

03.07.2017

Напоминаем, что на нашем специализированном сайте Метеоцентр.Азия вы можете получить высокодетализированные автоматические прогнозы погоды по пунктам России, СНГ и мира в авиационном формате (включающие направление и скорость ветра, видимость, явления погоды, количество и форму облачности, нижнюю и верхнюю границу облачности).


Погода в Аяне - сегодня

Время (UTC), дата Ветер
(°,м/с) 
Видим.   Явления Облачность Т
(°С)
Тd
(°С)
f(%) Тe
(°С)
Pmin
(гПа)
dP
(гПа)
Po
(мм)
O2
(г/м3)
Тmin Tmax R s Состояние
почвы
09 15.09.17 210 (ЮЗ) 20000 м    3/3 1000 м верхняя 
[Sc diur, vesp|Ci fib]
+12.1 +10.3 89 +14  1009.4  0.2  757  290    +17.7       
12 15.09.17 тихо ()   20000 м    4/0 средняя 
[Ac trans]
+12.3 +10.9 91 +14  1010.3  0.9  757  290           
15 15.09.17 020 (С) 20000 м    ясно 
+8.3 +7.4 94 +9  1009.8  -0.5  757  295           
18 15.09.17 360 (С) 20000 м    3/0 верхняя 
[Ci fib]
+9.3 +7.3 87 +9  1009.8  0.1  757  294           
21 15.09.17 240 (ЮЗ) 20000 м  слаб. дождь  10/10 1000 м 
[Sc]
+11.3 +9.2 87 +12  1010.4  0.6  757  291  +6.9        влажная 
03 16.09.17 020 (С) 20000 м  {дождь}  10/4 1000 м средняя 
[Sc|Ac cuf]
+14.3 +11.4 83 +19  1010.3  -0.7  757  288           
06 16.09.17 020 (С) 20000 м  {дождь}  10/0 средняя, верхняя 
[Ac cast|Ci sp]
+15.8 +11.8 77 +20  1010  -0.3  757  286           
12 16.09.17 040 (СВ) 20000 м    6/3 300 м средняя 
[St|Ac trans]
+12.2 +10.6 90 +15  1010.3  0.1  757  290           
15 16.09.17 020 (С) 20000 м    3/3 300 м 
[St]
+12.5 +10.7 89 +15  1009.5  -0.8  757  290           
18 16.09.17 340 (С) 20000 м    10/10 600 м 
[Sc]
+11.8 +9.9 88 +14  1008.4  -1  756  290           
00 17.09.17 190 (Ю) 20000 м    8/6 1000 м средняя 
[Sc diur, vesp|Ac lent]
+13.8 +10 78 +15  1008.3  -0.2  756  288           
03 17.09.17 190 (Ю) 20000 м    6/3 1000 м средняя, верхняя 
[Sc diur, vesp|Ac cast|Ci fib]
+15.4 +11.5 78 +18  1007  -1.3  755  286           
06 17.09.17 190 (Ю) 20000 м    8/3 300 м верхняя 
[St|Cs]
+14.6 +11.9 84 +18  1006  -1  754  286           
12 17.09.17 тихо ()   20000 м    8/0 верхняя 
[Ci fib]
+10.2 +9.4 95 +11  1006.6  0.1  754  291           
15 17.09.17 тихо ()   20000 м    8/6 600 м верхняя 
[Sc|Ci fib]
+11 +10.5 97 +13  1006.4  -0.2  754  290           
18 17.09.17 010 (С) 20000 м    8/8 200 м 
[St]
+13.2 +11.8 91 +16  1007.1  0.6  755  288           
21 17.09.17 020 (С) 20000 м    10/10 300 м 
[St]
+13.7 +11.8 88 +16  1007.6  0.5  755  287  +9.7        влажная 
12 18.09.17 020 (С) 20000 м    10/10 1000 м 
[Sc]
+14.1 +9.8 75 +15  1008.7  756  288           
15 18.09.17 030 (СВ) 20000 м    10/10 1000 м 
[Sc]
+14.2 +8.5 69 +14  1007.8  -0.9  755  288           
18 18.09.17 020 (С) 4{11}  4000 м  ливневой дождь  10/10 600 м кучево-дожд. 
[Cb cap]
+11.7 +10.6 93 +13  1007.3  -0.5  755  290           
21 18.09.17 020 (С) 6-14{18}  10 км  ливневой дождь  10/10 600 м кучево-дожд. 
[Cb cap]
+11.8 +10.5 92 +13  1006.5  -0.8  754  289  +11.6      мокрая 
00 19.09.17 030 (СВ) 6-11{15}  2000 м  ливневой дождь  10/10 300 м кучево-дожд. 
[Cb cap]
+11.8 +10.5 92 +13  1006.2  -0.4  754  289  +11.3         
03 19.09.17 030 (СВ) 7-13{16}  20000 м  {ливн. осадки}  10/10 200 м 
[St]
+11.8 +10.7 93 +12  1006.3  0.1  754  289           
06 19.09.17 030 (СВ) 5-11{14}  20000 м  {ливн. осадки}  10/10 300 м 
[St]
+11.7 +10.1 90 +12  1006.1  -0.2  754  290           
09 19.09.17 030 (СВ) 6-12{13}  20000 м    10/10 300 м 
[St]
+12.5 +10.1 85 +12  1006.3  0.2  754  289    +12.5  13     
Время (UTC), дата Ветер
(°,м/с) 
Видим.   Явления Облачность Т
(°С)
Тd
(°С)
f(%) Тe
(°С)
Pmin
(гПа)
dP
(гПа)
Po
(мм)
O2
(г/м3)
Тmin Tmax R s Состояние
почвы

Для получения пояснительной информации подведите курсор к названию столбца.

ПОГОДА в Аяне - архив

Всё, что Вы хотите узнать о погоде в Аяне - удобно и подробно!

Выберите нужную дату (начиная с 1 января 2015* года) и нажмите кнопку "Найти".
Будут отображены архивные сводки погоды по пункту Аян, начиная с указанной даты.


Отображать данные в формате CSV (для использования в таблицах Excel)


Внимание! Наш архив погоды предназначен исключительно для личного некоммерческого использования в познавательных целях. Если Вам необходимы официальные справки о состоянии погоды (для производственных, юридических, коммерческих и т.п. целей), обращайтесь в органы Росгидромета.

*Примечание: данная дата относится к архиву по метеостанциям СССР (Россия, СНГ, Балтия).
Архив по метеостанциям Зарубежной Европы и Азии (кроме Китая) хранится 10 дней, по другим регионам земного шара (Китай, Африка, Америка, Австралия, Океания) - 1 день.

Аян - район местоположения метеостанции


Название, широта, долгота, высота метеостанции:
Аян 56.4°ш. 138.2°д. 8 м над ур. моря [Российская Федерация]

Дополнительная информация

В oтличие oт бoльшинства пoгoдных сайтoв мы публикуем пoдрoбную метеoинфoрмацию в детальнoм прoфессиoнальнoм фoрмате.

Характеристики температуры и влажнoсти вoздуха измеряются на высoте 2 м в тени вдали oт зданий и деревьев.
Скoрoсть ветра измеряется на высoте 10 м (на урoвне рoста челoвека скoрoсть ветра ниже в 1.5-2 раза). Если метеoстанция нахoдится в гoрoде или в лесу, тo скoрoсть ветра занижена на 2-4 м/с пo сравнению с oткрытым местoм. Скoрoсть ветра над акватoриями крупных рек и oзёр, а также на вершинах хoлмoв на 2-5 м/с выше, чем в oбычных услoвиях.
Атмoсфернoе давление в разных тoчках местнoсти мoжет значительнo oтличаться oт давления на метеoстанции, в зависимoсти oт услoвий рельефа (при пoдъёме на 10 м давление пoнижается примернo на 1 мм рт.ст.).